Time,TemperatureF,DewpointF,PressureIn,WindDirection,WindDirectionDegrees,WindSpeedMPH,WindSpeedGustMPH,Humidity,HourlyPrecipIn,Conditions,Clouds,dailyrainin,SoftwareType,DateUTC
2013-04-25 00:02:00,31.0,25.0,30.20,NW,312,0.0,0.0,79,0.00,,,0.00,,2013-04-25 05:02:00,
2013-04-25 00:12:00,31.0,25.0,30.20,NW,312,0.0,0.0,79,0.00,,,0.00,,2013-04-25 05:12:00,
2013-04-25 00:21:00,30.0,25.0,30.20,NW,312,0.0,0.0,81,0.00,,,0.00,,2013-04-25 05:21:00,
2013-04-25 00:32:00,30.0,25.0,30.19,NW,312,0.0,0.0,82,0.00,,,0.00,,2013-04-25 05:32:00,
2013-04-25 00:42:00,30.0,25.0,30.19,NW,312,0.0,0.0,82,0.00,,,0.00,,2013-04-25 05:42:00,
2013-04-25 00:52:00,30.0,25.0,30.19,NW,312,0.0,0.0,83,0.00,,,0.00,,2013-04-25 05:52:00,
2013-04-25 01:02:00,29.0,24.0,30.19,NW,312,0.0,0.0,82,0.00,,,0.00,,2013-04-25 06:02:00,
2013-04-25 01:11:00,29.0,24.0,30.19,NW,312,0.0,0.0,82,0.00,,,0.00,,2013-04-25 06:11:00,
2013-04-25 01:22:00,29.0,24.0,30.20,NW,312,0.0,0.0,81,0.00,,,0.00,,2013-04-25 06:22:00,
2013-04-25 01:31:00,28.0,23.0,30.20,NW,312,0.0,0.0,82,0.00,,,0.00,,2013-04-25 06:31:00,
2013-04-25 01:42:00,28.0,23.0,30.20,NW,312,0.0,0.0,82,0.00,,,0.00,,2013-04-25 06:42:00,
2013-04-25 01:52:00,28.0,23.0,30.19,NW,312,0.0,0.0,82,0.00,,,0.00,,2013-04-25 06:52:00,
2013-04-25 02:01:00,28.0,23.0,30.19,NW,312,0.0,0.0,82,0.00,,,0.00,,2013-04-25 07:01:00,
2013-04-25 02:12:00,28.0,23.0,30.19,NW,312,0.0,0.0,82,0.00,,,0.00,,2013-04-25 07:12:00,
2013-04-25 02:22:00,27.0,23.0,30.19,NW,312,0.0,0.0,83,0.00,,,0.00,,2013-04-25 07:22:00,
2013-04-25 02:32:00,27.0,23.0,30.19,NW,312,0.0,0.0,83,0.00,,,0.00,,2013-04-25 07:32:00,
2013-04-25 02:42:00,27.0,23.0,30.19,NW,312,0.0,0.0,83,0.00,,,0.00,,2013-04-25 07:42:00,
2013-04-25 02:52:00,26.0,22.0,30.18,NW,312,0.0,0.0,83,0.00,,,0.00,,2013-04-25 07:52:00,
2013-04-25 03:01:00,26.0,22.0,30.18,NW,312,0.0,0.0,84,0.00,,,0.00,,2013-04-25 08:01:00,
2013-04-25 03:11:00,26.0,22.0,30.18,NW,312,0.0,0.0,84,0.00,,,0.00,,2013-04-25 08:11:00,
2013-04-25 03:21:00,26.0,22.0,30.19,NW,312,0.0,0.0,84,0.00,,,0.00,,2013-04-25 08:21:00,
2013-04-25 03:31:00,25.0,21.0,30.18,NW,312,0.0,1.0,84,0.00,,,0.00,,2013-04-25 08:31:00,
2013-04-25 03:42:00,25.0,21.0,30.18,NW,312,0.0,1.0,84,0.00,,,0.00,,2013-04-25 08:42:00,
2013-04-25 03:52:00,25.0,21.0,30.18,NW,312,0.0,0.0,85,0.00,,,0.00,,2013-04-25 08:52:00,
2013-04-25 04:01:00,25.0,21.0,30.18,NW,312,0.0,0.0,85,0.00,,,0.00,,2013-04-25 09:01:00,
2013-04-25 04:11:00,25.0,21.0,30.18,NW,312,0.0,0.0,85,0.00,,,0.00,,2013-04-25 09:11:00,
2013-04-25 04:21:00,25.0,21.0,30.19,NW,312,0.0,0.0,85,0.00,,,0.00,,2013-04-25 09:21:00,
2013-04-25 04:33:00,25.0,21.0,30.18,NW,312,0.0,0.0,86,0.00,,,0.00,,2013-04-25 09:33:00,
2013-04-25 04:42:00,25.0,21.0,30.18,NW,312,0.0,0.0,86,0.00,,,0.00,,2013-04-25 09:42:00,
2013-04-25 04:52:00,26.0,22.0,30.17,NW,312,0.0,1.0,85,0.00,,,0.00,,2013-04-25 09:52:00,
2013-04-25 05:02:00,26.0,22.0,30.18,NW,312,0.0,0.0,85,0.00,,,0.00,,2013-04-25 10:02:00,
2013-04-25 05:12:00,26.0,22.0,30.18,NW,312,0.0,0.0,85,0.00,,,0.00,,2013-04-25 10:12:00,
2013-04-25 05:22:00,26.0,23.0,30.18,NW,312,0.0,0.0,87,0.00,,,0.00,,2013-04-25 10:22:00,
2013-04-25 05:32:00,27.0,24.0,30.18,NW,306,1.0,3.0,87,0.00,,,0.00,,2013-04-25 10:32:00,
2013-04-25 05:42:00,27.0,24.0,30.18,NW,306,1.0,3.0,87,0.00,,,0.00,,2013-04-25 10:42:00,
2013-04-25 05:53:00,27.0,23.0,30.18,NW,306,0.0,2.0,86,0.00,,,0.00,,2013-04-25 10:53:00,
2013-04-25 06:02:00,27.0,23.0,30.16,NW,306,0.0,2.0,85,0.00,,,0.00,,2013-04-25 11:02:00,
2013-04-25 06:12:00,27.0,23.0,30.16,NW,306,0.0,2.0,85,0.00,,,0.00,,2013-04-25 11:12:00,
2013-04-25 06:22:00,27.0,23.0,30.16,NW,306,0.0,1.0,85,0.00,,,0.00,,2013-04-25 11:22:00,
2013-04-25 06:32:00,26.0,22.0,30.16,NW,306,0.0,2.0,85,0.00,,,0.00,,2013-04-25 11:32:00,
2013-04-25 06:42:00,26.0,22.0,30.16,NW,306,0.0,2.0,85,0.00,,,0.00,,2013-04-25 11:42:00,
2013-04-25 06:51:00,26.0,22.0,30.16,NW,306,0.0,0.0,85,0.00,,,0.00,,2013-04-25 11:51:00,
2013-04-25 07:01:00,27.0,24.0,30.16,NW,306,0.0,2.0,87,0.00,,,0.00,,2013-04-25 12:01:00,
2013-04-25 07:12:00,27.0,24.0,30.16,NW,306,0.0,2.0,87,0.00,,,0.00,,2013-04-25 12:12:00,
2013-04-25 07:21:00,28.0,24.0,30.16,NW,309,0.0,3.0,86,0.00,,,0.00,,2013-04-25 12:21:00,
2013-04-25 07:31:00,30.0,26.0,30.15,NW,313,0.0,3.0,85,0.00,,,0.00,,2013-04-25 12:31:00,
2013-04-25 07:42:00,30.0,26.0,30.15,NW,313,0.0,3.0,85,0.00,,,0.00,,2013-04-25 12:42:00,
2013-04-25 07:51:00,32.0,27.0,30.15,North,350,0.0,3.0,83,0.00,,,0.00,,2013-04-25 12:51:00,
2013-04-25 08:02:00,33.0,28.0,30.14,East,80,0.0,3.0,82,0.00,,,0.00,,2013-04-25 13:02:00,
2013-04-25 08:11:00,33.0,28.0,30.14,East,80,0.0,3.0,82,0.00,,,0.00,,2013-04-25 13:11:00,
2013-04-25 08:21:00,33.0,28.0,30.14,East,80,0.0,3.0,82,0.00,,,0.00,,2013-04-25 13:21:00,
2013-04-25 08:32:00,35.0,29.0,30.14,ENE,77,0.0,5.0,80,0.00,,,0.00,,2013-04-25 13:32:00,
2013-04-25 08:42:00,35.0,29.0,30.14,ENE,77,0.0,5.0,80,0.00,,,0.00,,2013-04-25 13:42:00,
2013-04-25 08:52:00,37.0,30.0,30.14,East,88,1.0,4.0,77,0.00,,,0.00,,2013-04-25 13:52:00,
2013-04-25 09:02:00,39.0,31.0,30.13,ENE,74,1.0,5.0,73,0.00,,,0.00,,2013-04-25 14:02:00,
2013-04-25 09:11:00,39.0,31.0,30.13,ENE,74,1.0,5.0,73,0.00,,,0.00,,2013-04-25 14:11:00,
2013-04-25 09:21:00,41.0,32.0,30.12,ESE,123,1.0,4.0,70,0.00,,,0.00,,2013-04-25 14:21:00,
2013-04-25 09:32:00,43.0,32.0,30.11,North,355,1.0,4.0,64,0.00,,,0.00,,2013-04-25 14:32:00,
2013-04-25 09:42:00,43.0,32.0,30.11,North,355,1.0,4.0,64,0.00,,,0.00,,2013-04-25 14:42:00,
2013-04-25 09:51:00,45.0,31.0,30.11,East,87,3.0,10.0,57,0.00,,,0.00,,2013-04-25 14:51:00,
2013-04-25 10:02:00,46.0,31.0,30.10,East,88,2.0,8.0,55,0.00,,,0.00,,2013-04-25 15:02:00,
2013-04-25 10:11:00,46.0,31.0,30.10,East,88,2.0,8.0,55,0.00,,,0.00,,2013-04-25 15:11:00,
2013-04-25 10:21:00,48.0,31.0,30.09,ESE,105,2.0,12.0,52,0.00,,,0.00,,2013-04-25 15:21:00,
2013-04-25 10:33:00,50.0,31.0,30.09,WNW,302,4.0,10.0,47,0.00,,,0.00,,2013-04-25 15:33:00,
2013-04-25 10:42:00,50.0,31.0,30.09,WNW,302,4.0,10.0,47,0.00,,,0.00,,2013-04-25 15:42:00,
2013-04-25 10:53:00,51.0,30.0,30.08,ESE,102,3.0,9.0,45,0.00,,,0.00,,2013-04-25 15:53:00,
2013-04-25 11:02:00,52.0,30.0,30.07,NNW,348,3.0,9.0,43,0.00,,,0.00,,2013-04-25 16:02:00,
2013-04-25 11:13:00,52.0,30.0,30.07,NNW,348,3.0,9.0,43,0.00,,,0.00,,2013-04-25 16:13:00,
2013-04-25 11:24:00,52.0,30.0,30.07,East,81,3.0,8.0,42,0.00,,,0.00,,2013-04-25 16:24:00,
2013-04-25 11:32:00,52.0,30.0,30.06,ESE,107,2.0,5.0,42,0.00,,,0.00,,2013-04-25 16:32:00,
2013-04-25 11:43:00,52.0,30.0,30.06,ESE,107,2.0,5.0,42,0.00,,,0.00,,2013-04-25 16:43:00,
2013-04-25 11:52:00,54.0,31.0,30.06,ESE,111,3.0,7.0,41,0.00,,,0.00,,2013-04-25 16:52:00,
2013-04-25 12:02:00,55.0,32.0,30.05,ESE,118,2.0,6.0,42,0.00,,,0.00,,2013-04-25 17:02:00,
2013-04-25 12:11:00,55.0,32.0,30.05,ESE,118,2.0,6.0,42,0.00,,,0.00,,2013-04-25 17:11:00,
2013-04-25 12:22:00,57.0,32.0,30.04,East,94,2.0,8.0,38,0.00,,,0.00,,2013-04-25 17:22:00,
2013-04-25 12:32:00,58.0,31.0,30.03,ESE,103,2.0,7.0,36,0.00,,,0.00,,2013-04-25 17:32:00,
2013-04-25 12:42:00,58.0,31.0,30.03,ESE,103,2.0,7.0,36,0.00,,,0.00,,2013-04-25 17:42:00,
2013-04-25 12:53:00,59.0,32.0,30.03,ESE,117,2.0,8.0,36,0.00,,,0.00,,2013-04-25 17:53:00,
2013-04-25 13:01:00,60.0,32.0,30.02,ESE,121,2.0,6.0,34,0.00,,,0.00,,2013-04-25 18:01:00,
2013-04-25 13:11:00,60.0,32.0,30.02,ESE,121,2.0,6.0,34,0.00,,,0.00,,2013-04-25 18:11:00,
2013-04-25 13:22:00,62.0,34.0,30.01,SE,144,1.0,5.0,35,0.00,,,0.00,,2013-04-25 18:22:00,
2013-04-25 13:32:00,63.0,33.0,30.00,ESE,109,3.0,9.0,32,0.00,,,0.00,,2013-04-25 18:32:00,
2013-04-25 13:42:00,63.0,33.0,30.00,ESE,109,3.0,9.0,32,0.00,,,0.00,,2013-04-25 18:42:00,
2013-04-25 13:52:00,64.0,34.0,29.98,SE,126,4.0,9.0,32,0.00,,,0.00,,2013-04-25 18:52:00,
2013-04-25 14:01:00,65.0,35.0,29.96,ESE,117,3.0,11.0,33,0.00,,,0.00,,2013-04-25 19:01:00,
2013-04-25 14:12:00,65.0,35.0,29.96,ESE,117,3.0,11.0,33,0.00,,,0.00,,2013-04-25 19:12:00,
2013-04-25 14:21:00,67.0,35.0,29.95,East,98,4.0,10.0,31,0.00,,,0.00,,2013-04-25 19:21:00,
2013-04-25 14:31:00,69.0,34.0,29.93,East,99,5.0,10.0,27,0.00,,,0.00,,2013-04-25 19:31:00,
2013-04-25 14:42:00,69.0,34.0,29.93,East,99,5.0,10.0,27,0.00,,,0.00,,2013-04-25 19:42:00,
2013-04-25 14:52:00,69.0,33.0,29.93,ENE,78,4.0,15.0,26,0.00,,,0.00,,2013-04-25 19:52:00,
2013-04-25 15:02:00,70.0,34.0,29.91,East,92,6.0,22.0,26,0.00,,,0.00,,2013-04-25 20:02:00,
2013-04-25 15:11:00,70.0,34.0,29.91,East,92,6.0,22.0,26,0.00,,,0.00,,2013-04-25 20:11:00,
2013-04-25 15:22:00,70.0,28.0,29.90,ESE,103,8.0,19.0,21,0.00,,,0.00,,2013-04-25 20:22:00,
2013-04-25 15:32:00,70.0,32.0,29.89,ENE,63,5.0,16.0,24,0.00,,,0.00,,2013-04-25 20:32:00,
2013-04-25 15:42:00,70.0,32.0,29.89,ENE,63,5.0,16.0,24,0.00,,,0.00,,2013-04-25 20:42:00,
2013-04-25 15:52:00,69.0,31.0,29.89,SE,128,7.0,13.0,24,0.00,,,0.00,,2013-04-25 20:52:00,
2013-04-25 16:01:00,70.0,32.0,29.88,SE,128,7.0,14.0,24,0.00,,,0.00,,2013-04-25 21:01:00,
2013-04-25 16:11:00,70.0,32.0,29.88,SE,128,7.0,14.0,24,0.00,,,0.00,,2013-04-25 21:11:00,
2013-04-25 16:21:00,70.0,32.0,29.88,SE,128,7.0,14.0,24,0.00,,,0.00,,2013-04-25 21:21:00,
2013-04-25 16:33:00,71.0,29.0,29.85,East,101,4.0,10.0,21,0.00,,,0.00,,2013-04-25 21:33:00,
2013-04-25 16:42:00,71.0,29.0,29.85,East,101,4.0,10.0,21,0.00,,,0.00,,2013-04-25 21:42:00,
2013-04-25 16:53:00,71.0,29.0,29.84,ESE,105,5.0,16.0,21,0.00,,,0.00,,2013-04-25 21:53:00,
2013-04-25 17:02:00,72.0,31.0,29.83,ESE,116,7.0,17.0,22,0.00,,,0.00,,2013-04-25 22:02:00,
2013-04-25 17:12:00,72.0,31.0,29.83,ESE,116,7.0,17.0,22,0.00,,,0.00,,2013-04-25 22:12:00,
2013-04-25 17:22:00,71.0,30.0,29.82,East,98,6.0,15.0,22,0.00,,,0.00,,2013-04-25 22:22:00,
2013-04-25 17:33:00,70.0,29.0,29.81,SSE,163,7.0,17.0,22,0.00,,,0.00,,2013-04-25 22:33:00,
2013-04-25 17:42:00,70.0,29.0,29.81,SSE,163,7.0,17.0,22,0.00,,,0.00,,2013-04-25 22:42:00,
2013-04-25 17:52:00,70.0,28.0,29.81,ESE,113,6.0,11.0,21,0.00,,,0.00,,2013-04-25 22:52:00,
2013-04-25 18:02:00,69.0,27.0,29.80,ESE,116,6.0,14.0,21,0.00,,,0.00,,2013-04-25 23:02:00,
2013-04-25 18:12:00,69.0,27.0,29.80,ESE,116,6.0,14.0,21,0.00,,,0.00,,2013-04-25 23:12:00,
2013-04-25 18:22:00,69.0,27.0,29.80,NNW,331,4.0,11.0,21,0.00,,,0.00,,2013-04-25 23:22:00,
2013-04-25 18:32:00,69.0,27.0,29.79,North,355,5.0,12.0,21,0.00,,,0.00,,2013-04-25 23:32:00,
2013-04-25 18:42:00,69.0,27.0,29.79,North,355,5.0,12.0,21,0.00,,,0.00,,2013-04-25 23:42:00,
2013-04-25 18:52:00,68.0,25.0,29.79,ESE,106,6.0,11.0,20,0.00,,,0.00,,2013-04-25 23:52:00,
2013-04-25 19:01:00,68.0,25.0,29.79,East,96,4.0,9.0,20,0.00,,,0.00,,2013-04-26 00:01:00,
2013-04-25 19:11:00,68.0,25.0,29.79,East,96,4.0,9.0,20,0.00,,,0.00,,2013-04-26 00:11:00,
2013-04-25 19:21:00,68.0,27.0,29.79,ESE,113,4.0,9.0,21,0.00,,,0.00,,2013-04-26 00:21:00,
2013-04-25 19:32:00,67.0,27.0,29.80,East,101,4.0,11.0,22,0.00,,,0.00,,2013-04-26 00:32:00,
2013-04-25 19:41:00,67.0,27.0,29.80,East,101,4.0,11.0,22,0.00,,,0.00,,2013-04-26 00:41:00,
2013-04-25 19:51:00,66.0,27.0,29.79,ENE,71,3.0,11.0,23,0.00,,,0.00,,2013-04-26 00:51:00,
2013-04-25 20:01:00,65.0,27.0,29.80,WNW,302,4.0,10.0,24,0.00,,,0.00,,2013-04-26 01:01:00,
2013-04-25 20:11:00,65.0,27.0,29.80,WNW,302,4.0,10.0,24,0.00,,,0.00,,2013-04-26 01:11:00,
2013-04-25 20:21:00,63.0,28.0,29.80,NNW,335,2.0,10.0,26,0.00,,,0.00,,2013-04-26 01:21:00,
2013-04-25 20:31:00,62.0,27.0,29.81,East,89,3.0,7.0,26,0.00,,,0.00,,2013-04-26 01:31:00,
2013-04-25 20:42:00,62.0,27.0,29.81,East,89,3.0,7.0,26,0.00,,,0.00,,2013-04-26 01:42:00,
2013-04-25 20:52:00,61.0,27.0,29.81,ESE,105,2.0,5.0,27,0.00,,,0.00,,2013-04-26 01:52:00,
2013-04-25 21:02:00,60.0,26.0,29.81,East,95,1.0,8.0,27,0.00,,,0.00,,2013-04-26 02:02:00,
2013-04-25 21:11:00,60.0,26.0,29.81,East,95,1.0,8.0,27,0.00,,,0.00,,2013-04-26 02:11:00,
2013-04-25 21:21:00,59.0,26.0,29.82,East,84,1.0,5.0,28,0.00,,,0.00,,2013-04-26 02:21:00,
2013-04-25 21:32:00,59.0,26.0,29.83,NNE,15,1.0,7.0,28,0.00,,,0.00,,2013-04-26 02:32:00,
2013-04-25 21:42:00,59.0,26.0,29.83,NNE,15,1.0,7.0,28,0.00,,,0.00,,2013-04-26 02:42:00,
2013-04-25 21:51:00,58.0,26.0,29.83,NW,313,0.0,5.0,29,0.00,,,0.00,,2013-04-26 02:51:00,
2013-04-25 22:01:00,57.0,25.0,29.84,NNW,331,1.0,4.0,29,0.00,,,0.00,,2013-04-26 03:01:00,
2013-04-25 22:11:00,57.0,25.0,29.84,NNW,331,1.0,4.0,29,0.00,,,0.00,,2013-04-26 03:11:00,
2013-04-25 22:21:00,56.0,23.0,29.85,North,355,0.0,5.0,28,0.00,,,0.00,,2013-04-26 03:21:00,
2013-04-25 22:33:00,55.0,24.0,29.85,North,350,0.0,4.0,30,0.00,,,0.00,,2013-04-26 03:33:00,
2013-04-25 22:43:00,55.0,24.0,29.85,North,350,0.0,4.0,30,0.00,,,0.00,,2013-04-26 03:43:00,
2013-04-25 22:53:00,54.0,22.0,29.85,North,11,1.0,7.0,29,0.00,,,0.00,,2013-04-26 03:53:00,
2013-04-25 23:02:00,54.0,22.0,29.85,ENE,73,1.0,5.0,29,0.00,,,0.00,,2013-04-26 04:02:00,
2013-04-25 23:12:00,54.0,22.0,29.85,ENE,73,1.0,5.0,29,0.00,,,0.00,,2013-04-26 04:12:00,
2013-04-25 23:23:00,54.0,23.0,29.87,East,86,1.0,5.0,30,0.00,,,0.00,,2013-04-26 04:23:00,
2013-04-25 23:32:00,54.0,24.0,29.87,ESE,103,1.0,5.0,31,0.00,,,0.00,,2013-04-26 04:32:00,
2013-04-25 23:43:00,54.0,24.0,29.87,ESE,103,1.0,5.0,31,0.00,,,0.00,,2013-04-26 04:43:00,
2013-04-25 23:52:00,53.0,24.0,29.87,ESE,108,1.0,7.0,32,0.00,,,0.00,,2013-04-26 04:52:00,